Weather in Kolomak

Ukraine / Kharkiv Region     49°50′30″N   35°18′29″E
temp.,
°C
wind,
m/s
gust,
m/s
humid.,
%
clouds,
%
prec.,
mm/h
press.,
hPa
HPBL,
m
4 december, sat
sat423:00+2nw71195100 0.3 1009479
02:00+2nw4895100 1.1 1012476
05:00+2wnw4784100 0.0 1013530
08:000wnw3683100 0.0 1015353
11:00+1nw3465100 0.0 1015390
14:00+2nnw2364100 0.0 1014424
17:000nne227991 0.0 101535
20:00−1e348392 0.0 101570
5 december, sun
sun523:00−2ene338271 0.0 101455
02:00−2ene348410 0.0 101472
05:00−3ene3584100 0.0 101489
08:00−2ene35825 0.0 1015119
11:00+1ene33580 0.0 1015366
14:00+2ene235588 0.0 1015132
17:00−1e3367100 0.0 101637
20:00−2ese3472100 0.0 101766
6 december, mon
mon623:00−1se3573100 0.0 1017139
02:00−1se3580100 0.0 1018155
05:00−1se3692100 0.0 1017147
08:000se4992100 0.0 1018245
11:00+2sse4781100 0.0 1017378
14:00+3sse4881100 0.0 1017359
17:00+3se51089100 0.4 1016296
20:00+4se61493100 0.9 1015418
7 december, tue
tue723:00+5sse61396100 2.4 1014441
02:00+6s61496100 2.7 1013411
05:00+7s61495100 0.3 1012420
08:00+8s51294100 0.7 1011328
11:00+9s61387100 0.5 1011467
14:00+9sse5997100 2.9 1010239
17:00+8se4991100 0.4 1009236
20:00+7sse4108695 0.4 1009202
8 december, wed
wed823:00+7sse3685100 0.0 1008127
02:00+6ese3383100 0.0 100850
05:00+5e4881100 0.0 1006146
08:00+5e51081100 0.0 1006229
11:00+7ese51074100 0.0 1005307
14:00+8ese5973100 0.0 1004372
17:00+6ese4983100 0.0 1005251
20:00+5ese4789100 0.0 1005156